ETR8596 LIRF-SVMI

Flight info

Callsign ETR8596
Flight time N/A
Altitude 35000
Route ESINO DCT ABIDU DCT POZZO DCT EPIKU/N0489F360 DCT GINOX DCT KIFMI DCT ELVOP DCT MUREN DCT CHELY DCT VERSO DCT SULID DCT SADEM DCT BCN/N0488F350 DCT ANTON DCT XIKEN DCT OSLAP DCT SALAS DCT RAMON DCT NEXAS DCT DISVU DCT ADUXO DCT CJN DCT PALIO DCT AKOKI DCT GOTOR DCT TLD DCT NATPA DCT MELON DCT CCS/N0494F370 DCT ELVAR DCT VABEM DCT IRKID/M085F360 DCT 33N020W/M085F380 30N030W 25N040W 20N050W/M085F400 DCT HIGNZ/N0487F400 DCT 15N060W DCT SOMON DCT ONGAL UA551 MASPA DCT KOMPU
Aircraft A388/J-SADE2E3FGHIJ3J4J5M1RWXYZ/LB1D1

Departure

Time N/A
Airport Rome–Fiumicino Leonardo da Vinci International Airport (LIRF)

Arrival

Time 2026-05-03 22:01
Airport Maiquetía Simón Bolívar International Airport (SVMI)
Time Latitude Longitude Altitude Speed Heading
2026-05-03 21:28 11.89457 -65.08546 40948 ft 478 kts 238°
2026-05-03 21:28 11.85649 -65.14066 40951 ft 479 kts 238°
2026-05-03 21:29 11.81811 -65.19626 40941 ft 479 kts 238°
2026-05-03 21:29 11.77967 -65.25192 40944 ft 480 kts 238°
2026-05-03 21:30 11.74115 -65.30768 40946 ft 481 kts 238°
2026-05-03 21:30 11.70257 -65.36347 40943 ft 481 kts 238°
2026-05-03 21:31 11.66395 -65.41931 40949 ft 482 kts 238°
2026-05-03 21:31 11.62519 -65.47530 40945 ft 483 kts 238°
2026-05-03 21:32 11.59300 -65.52179 40913 ft 482 kts 238°
2026-05-03 21:32 11.57376 -65.54954 40667 ft 476 kts 238°
2026-05-03 21:32 11.55475 -65.57696 40417 ft 473 kts 238°
2026-05-03 21:33 11.53575 -65.60437 40174 ft 474 kts 238°
2026-05-03 21:33 11.51673 -65.63183 39931 ft 474 kts 238°
2026-05-03 21:33 11.49768 -65.65931 39687 ft 474 kts 238°
2026-05-03 21:33 11.47862 -65.68679 39457 ft 474 kts 238°
2026-05-03 21:34 11.45953 -65.71429 39237 ft 474 kts 237°
2026-05-03 21:34 11.44048 -65.74174 38993 ft 474 kts 237°
2026-05-03 21:34 11.42146 -65.76914 38761 ft 475 kts 237°
2026-05-03 21:34 11.40235 -65.79666 38414 ft 474 kts 237°
2026-05-03 21:35 11.38305 -65.82400 37659 ft 477 kts 235°
2026-05-03 21:35 11.36132 -65.84987 36688 ft 484 kts 229°
2026-05-03 21:35 11.33709 -65.87406 35609 ft 491 kts 226°
2026-05-03 21:35 11.31275 -65.89816 34604 ft 495 kts 227°
2026-05-03 21:36 11.28805 -65.92276 33697 ft 496 kts 226°
2026-05-03 21:36 11.26357 -65.94719 32994 ft 490 kts 226°
2026-05-03 21:36 11.23949 -65.97119 32560 ft 479 kts 226°
2026-05-03 21:36 11.21588 -65.99472 31963 ft 472 kts 226°
2026-05-03 21:37 11.19251 -66.01801 31341 ft 467 kts 226°
2026-05-03 21:37 11.16937 -66.04108 30728 ft 463 kts 226°
2026-05-03 21:37 11.14645 -66.06392 30116 ft 459 kts 226°
2026-05-03 21:37 11.12371 -66.08657 29457 ft 455 kts 226°
2026-05-03 21:38 11.10123 -66.10895 28844 ft 448 kts 226°
2026-05-03 21:38 11.07906 -66.13103 28250 ft 443 kts 226°
2026-05-03 21:38 11.05714 -66.15284 27650 ft 438 kts 226°
2026-05-03 21:38 11.03540 -66.17448 27068 ft 434 kts 226°
2026-05-03 21:39 11.01415 -66.19562 26482 ft 430 kts 226°
2026-05-03 21:39 10.99281 -66.21684 25892 ft 427 kts 226°
2026-05-03 21:39 10.97164 -66.23790 25312 ft 424 kts 226°
2026-05-03 21:39 10.95062 -66.25880 24739 ft 421 kts 226°
2026-05-03 21:40 10.92969 -66.27962 24149 ft 419 kts 225°
2026-05-03 21:40 10.90877 -66.30017 23552 ft 419 kts 225°
2026-05-03 21:40 10.88775 -66.32058 22925 ft 416 kts 224°
2026-05-03 21:40 10.86682 -66.34086 22351 ft 413 kts 224°
2026-05-03 21:41 10.84614 -66.36092 21765 ft 410 kts 223°
2026-05-03 21:41 10.82746 -66.38276 21177 ft 408 kts 236°
2026-05-03 21:41 10.81448 -66.40827 20604 ft 407 kts 249°
2026-05-03 21:41 10.80767 -66.43579 20026 ft 406 kts 261°
2026-05-03 21:42 10.80304 -66.46451 19438 ft 405 kts 260°
2026-05-03 21:42 10.79829 -66.49234 18849 ft 404 kts 259°
2026-05-03 21:42 10.79340 -66.52053 18263 ft 404 kts 259°
2026-05-03 21:42 10.78849 -66.54868 17601 ft 403 kts 259°
2026-05-03 21:43 10.78363 -66.57666 17016 ft 400 kts 259°
2026-05-03 21:43 10.77882 -66.60443 16423 ft 397 kts 259°
2026-05-03 21:43 10.77404 -66.63202 15835 ft 395 kts 259°
2026-05-03 21:43 10.76929 -66.65944 15248 ft 392 kts 259°
2026-05-03 21:44 10.76457 -66.68669 14663 ft 390 kts 259°
2026-05-03 21:44 10.75987 -66.71385 14088 ft 388 kts 259°
2026-05-03 21:44 10.75519 -66.74084 13465 ft 386 kts 259°
2026-05-03 21:44 10.75061 -66.76725 12889 ft 382 kts 259°
2026-05-03 21:45 10.74596 -66.79405 12312 ft 378 kts 259°
2026-05-03 21:45 10.74143 -66.82014 11804 ft 372 kts 259°
2026-05-03 21:45 10.73696 -66.84589 11245 ft 368 kts 259°
2026-05-03 21:45 10.73252 -66.87142 10707 ft 365 kts 259°
2026-05-03 21:46 10.72831 -66.89657 10373 ft 355 kts 262°
2026-05-03 21:46 10.72721 -66.92110 10229 ft 340 kts 270°
2026-05-03 21:46 10.72745 -66.94468 10105 ft 326 kts 270°
2026-05-03 21:46 10.72745 -66.96694 9985 ft 313 kts 269°
2026-05-03 21:47 10.72739 -66.98898 9574 ft 311 kts 269°
2026-05-03 21:47 10.72732 -67.01094 9088 ft 311 kts 269°
2026-05-03 21:47 10.72726 -67.03282 8829 ft 306 kts 269°
2026-05-03 21:47 10.72721 -67.05424 8496 ft 301 kts 269°
2026-05-03 21:48 10.72717 -67.07539 8150 ft 297 kts 269°
2026-05-03 21:48 10.72713 -67.09632 7803 ft 294 kts 268°
2026-05-03 21:48 10.72709 -67.11700 7469 ft 291 kts 268°
2026-05-03 21:48 10.72704 -67.13754 7129 ft 289 kts 268°
2026-05-03 21:49 10.72700 -67.15787 6792 ft 287 kts 268°
2026-05-03 21:49 10.72695 -67.17810 6461 ft 285 kts 268°
2026-05-03 21:49 10.72690 -67.19818 6116 ft 282 kts 268°
2026-05-03 21:49 10.72686 -67.21803 5762 ft 280 kts 269°
2026-05-03 21:50 10.72694 -67.23775 5440 ft 277 kts 269°
2026-05-03 21:50 10.72707 -67.25705 5105 ft 276 kts 270°
2026-05-03 21:50 10.72721 -67.27656 4990 ft 275 kts 270°
2026-05-03 21:50 10.72734 -67.29597 4996 ft 276 kts 269°
2026-05-03 21:51 10.72746 -67.31570 4990 ft 282 kts 269°
2026-05-03 21:51 10.72757 -67.33573 4990 ft 284 kts 270°
2026-05-03 21:51 10.72767 -67.35584 4991 ft 283 kts 269°
2026-05-03 21:51 10.72410 -67.37519 4991 ft 279 kts 244°
2026-05-03 21:52 10.71262 -67.39076 4996 ft 276 kts 218°
2026-05-03 21:52 10.69561 -67.39933 4995 ft 274 kts 191°
2026-05-03 21:52 10.67667 -67.40054 4992 ft 273 kts 171°
2026-05-03 21:52 10.65928 -67.39379 4990 ft 268 kts 143°
2026-05-03 21:53 10.64704 -67.37980 4994 ft 267 kts 119°
2026-05-03 21:53 10.63977 -67.36238 4774 ft 270 kts 108°
2026-05-03 21:53 10.63393 -67.34420 4454 ft 270 kts 108°
2026-05-03 21:53 10.62755 -67.32622 4105 ft 269 kts 111°
2026-05-03 21:54 10.62043 -67.30902 4001 ft 266 kts 115°
2026-05-03 21:54 10.61218 -67.29238 3997 ft 260 kts 117°
2026-05-03 21:54 10.60397 -67.27623 3995 ft 255 kts 115°
2026-05-03 21:54 10.59832 -67.25952 4001 ft 241 kts 100°
2026-05-03 21:55 10.59675 -67.24309 3992 ft 227 kts 91°
2026-05-03 21:55 10.59685 -67.22771 3997 ft 215 kts 88°
2026-05-03 21:55 10.59734 -67.21284 3955 ft 207 kts 88°
2026-05-03 21:55 10.59778 -67.19839 3725 ft 205 kts 88°
2026-05-03 21:56 10.59824 -67.18449 3455 ft 188 kts 88°
2026-05-03 21:56 10.59864 -67.17195 3221 ft 169 kts 89°
2026-05-03 21:56 10.59901 -67.16034 2999 ft 159 kts 89°
2026-05-03 21:56 10.59936 -67.14945 2794 ft 149 kts 88°
2026-05-03 21:57 10.59969 -67.13922 2623 ft 142 kts 88°
2026-05-03 21:57 10.60001 -67.12912 2453 ft 145 kts 88°
2026-05-03 21:57 10.60034 -67.11898 2280 ft 141 kts 89°
2026-05-03 21:57 10.60066 -67.10908 2092 ft 142 kts 89°
2026-05-03 21:58 10.60098 -67.09882 1908 ft 145 kts 88°
2026-05-03 21:58 10.60126 -67.09006 1736 ft 140 kts 89°
2026-05-03 21:58 10.60156 -67.08032 1562 ft 136 kts 89°
2026-05-03 21:58 10.60181 -67.07083 1402 ft 134 kts 88°
2026-05-03 21:59 10.60222 -67.06153 1244 ft 131 kts 88°
2026-05-03 21:59 10.60266 -67.05226 1083 ft 129 kts 90°
2026-05-03 21:59 10.60286 -67.04293 947 ft 134 kts 88°
2026-05-03 21:59 10.60331 -67.03346 685 ft 131 kts 88°
2026-05-03 22:00 10.60354 -67.02430 518 ft 132 kts 90°
2026-05-03 22:00 10.60370 -67.01494 326 ft 131 kts 86°
2026-05-03 22:00 10.60398 -67.00604 220 ft 112 kts 88°
2026-05-03 22:00 10.60426 -66.99956 206 ft 75 kts 88°
2026-05-03 22:01 10.60437 -66.99513 194 ft 53 kts 88°
2026-05-03 22:01 10.60445 -66.99190 180 ft 40 kts 88°
2026-05-03 22:01 10.60454 -66.98937 175 ft 32 kts 88°
2026-05-03 22:01 10.60459 -66.98758 172 ft 9 kts 88°
2026-05-03 22:02 10.60461 -66.98691 169 ft 6 kts 88°
2026-05-03 22:02 10.60449 -66.98662 159 ft 2 kts 156°
2026-05-03 22:02 10.60427 -66.98663 170 ft 6 kts 197°
2026-05-03 22:02 10.60384 -66.98699 179 ft 11 kts 234°
2026-05-03 22:03 10.60338 -66.98786 175 ft 16 kts 240°
2026-05-03 22:03 10.60287 -66.98879 172 ft 17 kts 252°
2026-05-03 22:03 10.60278 -66.99020 161 ft 23 kts 273°
2026-05-03 22:03 10.60277 -66.99199 163 ft 28 kts 268°
2026-05-03 22:04 10.60271 -66.99397 186 ft 27 kts 268°
2026-05-03 22:04 10.60265 -66.99594 216 ft 29 kts 268°
2026-05-03 22:04 10.60258 -66.99801 215 ft 29 kts 268°
2026-05-03 22:04 10.60253 -67.00000 229 ft 29 kts 268°
2026-05-03 22:05 10.60248 -67.00183 226 ft 14 kts 268°
2026-05-03 22:05 10.60245 -67.00257 226 ft 11 kts 265°
2026-05-03 22:05 10.60208 -67.00306 230 ft 8 kts 195°
2026-05-03 22:05 10.60138 -67.00299 232 ft 12 kts 170°
2026-05-03 22:06 10.60044 -67.00294 231 ft 12 kts 181°
2026-05-03 22:06 10.59997 -67.00337 231 ft 11 kts 258°
2026-05-03 22:06 10.59997 -67.00437 232 ft 17 kts 273°
2026-05-03 22:06 10.59996 -67.00574 235 ft 21 kts 268°
2026-05-03 22:07 10.59992 -67.00721 237 ft 22 kts 269°
2026-05-03 22:07 10.59988 -67.00875 240 ft 19 kts 268°
2026-05-03 22:07 10.59986 -67.00912 240 ft 1 kts 259°
2026-05-03 22:07 10.59984 -67.00918 240 ft 1 kts 230°
2026-05-03 22:08 10.59976 -67.00924 240 ft 1 kts 199°
2026-05-03 22:08 10.59964 -67.00924 240 ft 4 kts 168°
2026-05-03 22:08 10.59914 -67.00917 241 ft 9 kts 176°
2026-05-03 22:08 10.59869 -67.00916 241 ft 4 kts 179°
2026-05-03 22:09 10.59846 -67.00915 241 ft 2 kts 179°
2026-05-03 22:09 10.59833 -67.00915 241 ft 2 kts 178°